Location: Yellowknife
(62.4500°N, 114.3500°W)
Time: 10:59:17
(UTC-07:00)

Amateur Radio Satellites - All Passes

Search period start: 28 November 2014 10:29
Search period end: 29 November 2014 10:29
Location: Yellowknife, 62.4500°N, 114.3500°W

Satellite Date Start Highest point End Downlink Frequencies (MHz)
Time Altitude Azimuth
ZACube-1 28 Nov 10:31:09 10:34:59 33° 95° (E) 10:38:52 437.345
BRITE-PL 28 Nov 10:32:17 10:36:29 73° 292° (WNW) 10:40:38 437.365/2234.400
DOVE 4 28 Nov 10:34:00 10:38:11 78° 106° (ESE) 10:42:25 437.250
POPSAT HIP 1 28 Nov 10:40:19 10:44:30 57° 257° (WSW) 10:48:43 437.405
VELOX 1 28 Nov 10:41:43 10:45:36 28° 93° (E) 10:49:26 145.980
TIGRISAT 28 Nov 10:44:17 10:48:21 43° 261° (W) 10:52:29 435.000
Cubesat XI-IV 28 Nov 10:45:17 10:48:28 16° 332° (NNW) 10:51:39 437.490
ESTCUBE 1 28 Nov 10:49:59 10:53:16 19° 86° (E) 10:56:31 437.505/2401.250
CINEMA 3 28 Nov 10:50:21 10:54:33 74° 106° (ESE) 10:58:50 145.822/145.860
SEEDS 28 Nov 10:51:18 10:55:30 57° 295° (WNW) 10:59:43 437.485
DELFI C3 28 Nov 10:54:25 10:58:35 75° 106° (ESE) 11:02:44 145.870
O/OREOS (USA 219) 28 Nov 10:56:26 11:00:08 25° 360° (N) 11:03:50 437.305
UKube-1 28 Nov 10:58:06 11:02:29 73° 107° (ESE) 11:06:49 .
UNISAT 6 28 Nov 10:59:46 11:03:40 34° 265° (W) 11:07:37 437.425
ITAMSAT 1 28 Nov 10:59:54 11:03:29 19° 35° (NE) 11:07:05 435.822/435.867
50 SAT 28 Nov 11:01:12 11:04:55 33° 96° (E) 11:08:38 437.505
AAUSAT CUBESAT 2 28 Nov 11:02:45 11:06:55 57° 295° (WNW) 11:11:05 437.432
FUNcube-1 28 Nov 11:05:22 11:09:32 57° 102° (ESE) 11:13:45 145.935
Oscar 11 28 Nov 11:07:24 11:11:47 83° 291° (WNW) 11:16:10 145.826/435.025
AISAT 28 Nov 11:09:32 11:13:49 44° 99° (E) 11:18:03 437.250
GONETS M04 28 Nov 11:09:48 11:18:04 41° 311° (NW) 11:26:23
HO-68 28 Nov 11:12:38 11:19:47 68° 302° (WNW) 11:26:53 435.675
CUBEBUG 1 28 Nov 11:12:39 11:16:17 25° 91° (E) 11:19:54 437.445
JAS-2 28 Nov 11:13:40 11:18:34 19° 356° (N) 11:23:16 435.910
POLYITAN 1 28 Nov 11:16:11 11:20:01 32° 265° (W) 11:23:51 437.675
QB50P2 28 Nov 11:17:07 11:20:57 32° 265° (W) 11:24:47 145.880/145.840
YUBILEINY 28 Nov 11:19:56 11:27:50 35° 44° (NE) 11:35:40 435.215
COMPASS 1 28 Nov 11:20:04 11:24:04 41° 300° (WNW) 11:28:04 437.405
DUCHIFAT 1 28 Nov 11:21:28 11:25:13 30° 266° (W) 11:28:59 145.980
CANX-2 28 Nov 11:23:25 11:27:15 32° 304° (NW) 11:31:05 2200.000
CUTE-I 28 Nov 11:26:10 11:28:28 13° 341° (NNW) 11:30:46 437.470
GOMX 1 28 Nov 11:28:35 11:32:28 38° 301° (WNW) 11:36:20 467.674
ANTELSAT 28 Nov 11:29:46 11:33:06 22° 271° (W) 11:36:28 437.575/2403.000
HUMSAT D 28 Nov 11:30:21 11:34:30 62° 104° (ESE) 11:38:40 437.325/437.525
AO-7 28 Nov 11:31:34 11:38:23 30° 13° (NNE) 11:45:14 29.400- 29.500
SO-50 28 Nov 11:33:49 11:38:13 36° 227° (SW) 11:42:41 436.795
DX 1 28 Nov 11:36:30 11:40:50 62° 296° (WNW) 11:45:08 434.975-435.025
Oscar 19 28 Nov 11:38:13 11:42:59 40° 55° (NE) 11:47:46 437.125/150
UWE-3 28 Nov 11:38:22 11:42:35 76° 291° (WNW) 11:46:53 435.000/436.395/437.385
NANOSAT C BR1 28 Nov 11:42:00 11:45:21 22° 271° (W) 11:48:42 145.865
CUBEBUG 2 28 Nov 11:43:50 11:48:01 64° 293° (WNW) 11:52:16 437.445
Gurwin Techsat 1B 28 Nov 11:46:56 11:51:01 23° 40° (NE) 11:55:06 435.225
BUGSAT 1 28 Nov 11:48:44 11:52:03 22° 270° (W) 11:55:21 437.445
HORYU 2 28 Nov 11:49:22 11:51:25 13° 33° (NNE) 11:53:29 437.375
QB50P1 28 Nov 11:52:44 11:55:47 19° 273° (W) 11:58:50 145.935-145.965
CUTE 1.7 + AOD 2 28 Nov 11:58:00 12:01:20 22° 311° (NW) 12:04:40 437.475
TISAT 1 28 Nov 12:07:28 12:10:57 24° 91° (E) 12:14:24 437.305
ZACube-1 28 Nov 12:07:30 12:11:37 53° 296° (WNW) 12:15:47 437.345
BRITE-PL 28 Nov 12:11:29 12:14:29 19° 314° (NW) 12:17:26 437.365/2234.400
DOVE 4 28 Nov 12:12:15 12:15:41 25° 308° (NW) 12:19:08 437.250
VELOX 1 28 Nov 12:18:10 12:22:36 66° 294° (WNW) 12:26:59 145.980
POPSAT HIP 1 28 Nov 12:19:25 12:21:22 13° 279° (W) 12:23:20 437.405
Cubesat XI-IV 28 Nov 12:25:28 12:26:42 11° 356° (N) 12:27:57 437.490
SPROUT 28 Nov 12:25:38 12:29:28 30° 94° (E) 12:33:17 437.525
ESTCUBE 1 28 Nov 12:26:18 12:30:54 80° 107° (ESE) 12:35:27 437.505/2401.250
SEEDS 28 Nov 12:27:52 12:30:39 17° 316° (NW) 12:33:26 437.485
CINEMA 3 28 Nov 12:28:00 12:31:31 27° 307° (NW) 12:35:05 145.822/145.860
DELFI C3 28 Nov 12:30:08 12:33:36 26° 307° (NW) 12:37:04 145.870
ITUPSAT 1 28 Nov 12:33:46 12:35:45 12° 78° (ENE) 12:37:43 437.325
UKube-1 28 Nov 12:34:38 12:38:23 29° 308° (NW) 12:42:07 .
50 SAT 28 Nov 12:36:30 12:40:26 50° 297° (WNW) 12:44:23 437.505
O/OREOS (USA 219) 28 Nov 12:36:37 12:40:42 33° 25° (NNE) 12:44:48 437.305
ITAMSAT 1 28 Nov 12:37:03 12:42:03 49° 58° (ENE) 12:47:05 435.822/435.867
AAUSAT CUBESAT 2 28 Nov 12:39:11 12:41:54 17° 316° (NW) 12:44:38 437.432
FUNcube-1 28 Nov 12:42:01 12:45:48 33° 303° (WNW) 12:49:37 145.935
SWISSCUBE 28 Nov 12:43:05 12:45:52 15° 81° (E) 12:48:39 437.505
Oscar 11 28 Nov 12:44:06 12:47:30 23° 312° (NW) 12:50:54 145.826/435.025
AISAT 28 Nov 12:46:18 12:50:32 44° 301° (WNW) 12:54:44 437.250
CUBEBUG 1 28 Nov 12:48:45 12:53:10 75° 292° (WNW) 12:57:31 437.445
JAS-2 28 Nov 12:55:47 13:01:21 22° 21° (NNE) 13:06:43 435.910
COMPASS 1 28 Nov 12:56:48 12:58:55 14° 322° (NW) 13:01:01 437.405
HO-68 28 Nov 13:00:30 13:06:38 32° 326° (NNW) 13:12:45 435.675
CANX-2 28 Nov 13:00:41 13:02:08 12° 326° (NW) 13:03:34 2200.000
CUTE-I 28 Nov 13:05:17 13:06:34 11° 6° (N) 13:07:51 437.470
HUMSAT D 28 Nov 13:06:30 13:10:09 30° 305° (NW) 13:13:49 437.325/437.525
GOMX 1 28 Nov 13:07:57 13:09:40 12° 324° (NW) 13:11:22 467.674
CUSAT 1 28 Nov 13:09:37 13:12:03 32° 97° (E) 13:14:49 437.405
GONETS M04 28 Nov 13:11:08 13:17:53 23° 341° (NNW) 13:24:40
BEESAT 28 Nov 13:13:02 13:16:47 22° 88° (E) 13:20:31 436.000
DX 1 28 Nov 13:13:23 13:16:26 19° 317° (NW) 13:19:28 434.975-435.025
UWE-3 28 Nov 13:15:32 13:18:39 21° 312° (NW) 13:21:48 435.000/436.395/437.385
SO-50 28 Nov 13:16:22 13:17:37 11° 249° (WSW) 13:18:51 436.795
Oscar 19 28 Nov 13:17:10 13:22:14 60° 257° (WSW) 13:27:22 437.125/150
YUBILEINY 28 Nov 13:17:19 13:26:08 80° 72° (ENE) 13:34:51 435.215
CUBEBUG 2 28 Nov 13:21:16 13:24:08 18° 315° (NW) 13:27:01 437.445
AO-7 28 Nov 13:21:51 13:29:37 46° 40° (NE) 13:37:26 29.400- 29.500
HORYU 2 28 Nov 13:23:01 13:27:03 35° 55° (NE) 13:31:07 437.375
Gurwin Techsat 1B 28 Nov 13:24:59 13:30:15 64° 63° (ENE) 13:35:31 435.225
AUBIESAT-1 28 Nov 13:26:47 13:30:38 23° 95° (E) 13:34:28 437.475
M-CUBED/EXP-1 PRIME 28 Nov 13:33:53 13:38:02 26° 97° (E) 13:42:09 437.505
TISAT 1 28 Nov 13:43:01 13:47:16 73° 292° (WNW) 13:51:28 437.305
ZACube-1 28 Nov 13:44:43 13:47:17 16° 318° (NW) 13:49:53 437.345
DANDE 28 Nov 13:47:40 13:50:17 70° 105° (ESE) 13:53:12 436.750
VELOX 1 28 Nov 13:55:21 13:58:34 20° 316° (NW) 14:01:46 145.980
SPROUT 28 Nov 14:01:38 14:05:53 59° 295° (WNW) 14:10:06 437.525
Cubesat XI-IV 28 Nov 14:02:21 14:04:51 13° 21° (NNE) 14:07:20 437.490
ESTCUBE 1 28 Nov 14:03:34 14:07:27 28° 309° (NW) 14:11:19 437.505/2401.250
ITUPSAT 1 28 Nov 14:10:09 14:14:52 49° 100° (E) 14:19:32 437.325
UKube-1 28 Nov 14:12:07 14:13:24 11° 331° (NNW) 14:14:40 .
50 SAT 28 Nov 14:12:42 14:15:00 15° 318° (NW) 14:17:18 437.505
O/OREOS (USA 219) 28 Nov 14:16:09 14:20:40 85° 48° (NE) 14:25:10 437.305
ITAMSAT 1 28 Nov 14:16:36 14:21:40 48° 260° (W) 14:26:44 435.822/435.867
FUNcube-1 28 Nov 14:19:47 14:21:09 11° 325° (NW) 14:22:31 145.935
SWISSCUBE 28 Nov 14:19:59 14:24:47 60° 104° (ESE) 14:29:32 437.505
AISAT 28 Nov 14:23:45 14:26:17 15° 323° (NW) 14:28:48 437.250
CUBEBUG 1 28 Nov 14:25:41 14:29:00 21° 314° (NW) 14:32:18 437.445
KKS-1 28 Nov 14:31:40 14:35:23 25° 91° (E) 14:39:05 437.445
JAS-2 28 Nov 14:37:38 14:44:42 39° 45° (NE) 14:51:33 435.910
CUTE-I 28 Nov 14:41:30 14:44:49 17° 30° (NNE) 14:48:09 437.470
HUMSAT D 28 Nov 14:43:59 14:44:54 11° 327° (NNW) 14:45:49 437.325/437.525
HO-68 28 Nov 14:47:29 14:52:34 21° 352° (N) 14:57:38 435.675
BEESAT 28 Nov 14:50:29 14:55:21 87° 110° (ESE) 15:00:10 436.000
CUSAT 1 28 Nov 14:53:03 14:55:21 23° 306° (NW) 14:57:57 437.405
HORYU 2 28 Nov 14:59:14 15:03:37 58° 257° (WSW) 15:08:04 437.375
Oscar 19 28 Nov 14:59:36 15:02:42 16° 279° (W) 15:05:50 437.125/150
AUBIESAT-1 28 Nov 15:01:21 15:06:18 81° 116° (ESE) 15:11:13 437.475
Gurwin Techsat 1B 28 Nov 15:05:39 15:10:34 37° 265° (W) 15:15:31 435.225
M-CUBED/EXP-1 PRIME 28 Nov 15:08:39 15:13:37 88° 298° (WNW) 15:18:34 437.505
GONETS M04 28 Nov 15:12:05 15:18:42 22° 14° (NNE) 15:25:18
AO-7 28 Nov 15:13:40 15:22:01 85° 245° (WSW) 15:30:26 29.400- 29.500
YUBILEINY 28 Nov 15:14:30 15:22:25 41° 278° (W) 15:30:17 435.215
TISAT 1 28 Nov 15:19:27 15:22:34 20° 314° (NW) 15:25:40 437.305
RS-15 28 Nov 15:20:10 15:28:32 27° 104° (ESE) 15:36:57 29.354- 29.394
STARS 28 Nov 15:21:19 15:25:31 41° 99° (E) 15:29:41 437.465
MaSat-1 28 Nov 15:26:34 15:28:26 18° 122° (ESE) 15:30:14 437.345
DANDE 28 Nov 15:32:46 15:34:22 14° 314° (NW) 15:36:06 436.750
SPROUT 28 Nov 15:38:26 15:41:18 18° 317° (NW) 15:44:09 437.525
Cubesat XI-IV 28 Nov 15:39:03 15:43:29 27° 44° (NE) 15:47:55 437.490
ESTCUBE 1 28 Nov 15:41:42 15:43:06 11° 332° (NNW) 15:44:30 437.505/2401.250
ITUPSAT 1 28 Nov 15:48:13 15:52:48 44° 302° (WNW) 15:57:22 437.325
O/OREOS (USA 219) 28 Nov 15:55:59 15:59:40 25° 251° (WSW) 16:03:20 437.305
MOZHAYETS 4 28 Nov 15:57:44 15:59:14 11° 77° (ENE) 16:00:43
SWISSCUBE 28 Nov 15:58:06 16:02:32 37° 305° (NW) 16:06:57 437.505
ITAMSAT 1 28 Nov 16:00:09 16:02:29 13° 283° (WNW) 16:04:50 435.822/435.867
KKS-1 28 Nov 16:08:04 16:12:32 75° 292° (WNW) 16:16:58 437.445
CUTE-I 28 Nov 16:18:48 16:23:46 40° 53° (NE) 16:28:43 437.470
JAS-2 28 Nov 16:21:13 16:29:07 85° 68° (ENE) 16:36:49 435.910
BEESAT 28 Nov 16:28:44 16:32:48 28° 311° (NW) 16:36:51 436.000
HO-68 28 Nov 16:32:51 16:38:15 24° 18° (NNE) 16:43:38 435.675
AUBIESAT-1 28 Nov 16:36:36 16:40:59 34° 317° (NW) 16:45:23 437.475
HORYU 2 28 Nov 16:39:01 16:41:18 14° 278° (W) 16:43:35 437.375
M-CUBED/EXP-1 PRIME 28 Nov 16:43:59 16:48:15 31° 319° (NW) 16:52:33 437.505
STARS 28 Nov 16:57:54 17:02:07 45° 300° (WNW) 17:06:19 437.465
MaSat-1 28 Nov 17:00:05 17:02:39 66° 321° (NW) 17:05:04 437.345
AO-7 28 Nov 17:08:40 17:15:59 33° 270° (W) 17:23:23 29.400- 29.500
GONETS M04 28 Nov 17:10:36 17:18:44 38° 46° (NE) 17:26:48
YUBILEINY 28 Nov 17:12:36 17:16:44 15° 305° (NW) 17:20:52 435.215
Cubesat XI-IV 28 Nov 17:17:39 17:23:01 79° 66° (ENE) 17:28:24 437.490
ITUPSAT 1 28 Nov 17:26:46 17:29:45 17° 325° (NW) 17:32:44 437.325
RS-15 28 Nov 17:28:05 17:38:42 62° 132° (SE) 17:49:31 29.354- 29.394
MOZHAYETS 4 28 Nov 17:33:09 17:37:41 46° 99° (E) 17:42:11
SWISSCUBE 28 Nov 17:36:42 17:39:20 15° 328° (NNW) 17:41:57 437.505
COMPASS 1 28 Nov 17:40:04 17:40:45 10° 32° (NNE) 17:41:25 437.405
PRISM 28 Nov 17:41:54 17:44:39 17° 85° (E) 17:47:22 437.425
CANX-2 28 Nov 17:42:41 17:44:33 13° 36° (NE) 17:46:25 2200.000
KKS-1 28 Nov 17:45:15 17:48:39 22° 314° (NW) 17:52:02 437.445
CUBESAT XI-V 28 Nov 17:47:21 17:48:59 12° 77° (ENE) 17:50:37 437.345
STRAND 1 28 Nov 17:50:36 17:52:41 12° 77° (ENE) 17:54:45 437.568
GOMX 1 28 Nov 17:56:51 17:58:41 13° 37° (NE) 18:00:29 467.674
CUTE-I 28 Nov 17:58:22 18:03:42 65° 255° (WSW) 18:09:03 437.470
DX 1 28 Nov 17:59:10 18:00:03 11° 28° (NNE) 18:00:57 434.975-435.025
BEESAT 28 Nov 18:07:32 18:09:21 12° 334° (NNW) 18:11:10 436.000
JAS-2 28 Nov 18:07:40 18:14:52 38° 271° (W) 18:21:58 435.910
AUBIESAT-1 28 Nov 18:11:52 18:14:55 17° 338° (NNW) 18:18:00 437.475
CUTE 1.7 + AOD 2 28 Nov 18:15:39 18:18:26 17° 44° (NE) 18:21:15 437.475
HO-68 28 Nov 18:17:52 18:24:28 41° 43° (NE) 18:31:05 435.675
M-CUBED/EXP-1 PRIME 28 Nov 18:19:15 18:22:10 16° 341° (NNW) 18:25:07 437.505
STARS 28 Nov 18:35:12 18:37:45 15° 322° (NW) 18:40:18 437.465
MaSat-1 28 Nov 18:35:32 18:37:27 20° 343° (NNW) 18:39:19 437.345
DOVE 4 28 Nov 18:37:37 18:40:19 17° 43° (NE) 18:42:58 437.250
BRITE-PL 28 Nov 18:38:27 18:42:02 23° 50° (NE) 18:45:28 437.365/2234.400
VELOX 1 28 Nov 18:42:26 18:43:11 10° 27° (NNE) 18:43:56 145.980
SEEDS 28 Nov 18:44:07 18:47:23 22° 49° (NE) 18:50:41 437.485
DELFI C3 28 Nov 18:46:19 18:48:19 13° 39° (NE) 18:50:20 145.870
CINEMA 3 28 Nov 18:51:29 18:53:55 15° 41° (NE) 18:56:20 145.822/145.860
UKube-1 28 Nov 18:53:54 18:56:46 17° 41° (NE) 18:59:37 .
AAUSAT CUBESAT 2 28 Nov 18:54:49 18:58:02 22° 49° (NE) 19:01:17 437.432
Cubesat XI-IV 28 Nov 18:59:01 19:03:41 30° 269° (W) 19:08:23 437.490
Oscar 11 28 Nov 19:02:36 19:05:36 19° 44° (NE) 19:08:37 145.826/435.025
FUNcube-1 28 Nov 19:03:09 19:04:52 12° 36° (NE) 19:06:36 145.935
AIST 1 28 Nov 19:06:47 19:10:27 26° 87° (E) 19:14:07
GONETS M04 28 Nov 19:07:58 19:16:55 85° 74° (ENE) 19:25:45
AISAT 28 Nov 19:08:51 19:10:57 13° 34° (NNE) 19:13:02 437.250
MOZHAYETS 4 28 Nov 19:10:31 19:14:58 44° 300° (WNW) 19:19:24
AO-7 28 Nov 19:11:37 19:11:58 10° 297° (WNW) 19:12:20 29.400- 29.500
COMPASS 1 28 Nov 19:11:44 19:15:20 29° 54° (NE) 19:18:59 437.405
CANX-2 28 Nov 19:15:37 19:19:31 37° 58° (ENE) 19:23:28 2200.000
PRISM 28 Nov 19:16:41 19:20:58 74° 107° (ESE) 19:25:13 437.425
PCSat 28 Nov 19:20:31 19:24:30 21° 113° (ESE) 19:28:29 145.827
CUBESAT XI-V 28 Nov 19:23:05 19:27:39 47° 99° (E) 19:32:10 437.345
HUMSAT D 28 Nov 19:25:15 19:27:01 13° 37° (NE) 19:28:47 437.325/437.525
STRAND 1 28 Nov 19:28:15 19:33:13 47° 100° (E) 19:38:08 437.568
DX 1 28 Nov 19:31:26 19:35:05 26° 50° (NE) 19:38:45 434.975-435.025
GOMX 1 28 Nov 19:31:48 19:35:54 37° 59° (ENE) 19:39:49 467.674
UWE-3 28 Nov 19:35:23 19:38:19 19° 46° (NE) 19:41:15 435.000/436.395/437.385
RS-15 28 Nov 19:39:51 19:50:50 85° 342° (NNW) 20:02:08 29.354- 29.394
CUBEBUG 2 28 Nov 19:41:16 19:44:27 22° 49° (NE) 19:47:38 437.445
CUTE-I 28 Nov 19:41:16 19:44:51 18° 278° (W) 19:48:27 437.470
AUBIESAT-1 28 Nov 19:46:14 19:48:25 13° 1° (N) 19:50:38 437.475
CUTE 1.7 + AOD 2 28 Nov 19:49:31 19:53:41 59° 65° (ENE) 19:57:54 437.475
BEESAT 3 28 Nov 19:49:53 19:52:02 14° 118° (ESE) 19:54:13 437.485
M-CUBED/EXP-1 PRIME 28 Nov 19:53:29 19:55:42 13° 3° (N) 19:57:58 437.505
JAS-2 28 Nov 19:58:55 20:02:16 13° 295° (WNW) 20:05:36 435.910
ZACube-1 28 Nov 20:02:57 20:06:18 24° 51° (NE) 20:09:40 437.345
HO-68 28 Nov 20:04:33 20:11:47 85° 247° (WSW) 20:19:03 435.675
BEESAT 2 28 Nov 20:07:13 20:09:55 17° 121° (ESE) 20:12:39 435.950
MaSat-1 28 Nov 20:10:59 20:12:36 16° 6° (N) 20:14:12 437.345
DOVE 4 28 Nov 20:13:10 20:17:26 57° 65° (ENE) 20:21:34 437.250
VELOX 1 28 Nov 20:14:50 20:18:31 26° 49° (NE) 20:22:11 145.980
BRITE-PL 28 Nov 20:15:32 20:20:12 87° 71° (ENE) 20:24:34 437.365/2234.400
SEEDS 28 Nov 20:18:32 20:22:46 85° 70° (ENE) 20:27:02 437.485
DELFI C3 28 Nov 20:18:53 20:22:45 42° 61° (ENE) 20:26:40 145.870
ESTCUBE 1 28 Nov 20:25:15 20:28:27 19° 42° (NE) 20:31:39 437.505/2401.250
CINEMA 3 28 Nov 20:26:18 20:30:24 51° 63° (ENE) 20:34:27 145.822/145.860
50 SAT 28 Nov 20:26:36 20:29:45 22° 50° (NE) 20:32:54 437.505
UKube-1 28 Nov 20:27:56 20:32:12 55° 63° (ENE) 20:36:29 .
AAUSAT CUBESAT 2 28 Nov 20:29:04 20:33:16 84° 70° (ENE) 20:37:30 437.432
FUNcube-1 28 Nov 20:36:27 20:40:17 37° 59° (ENE) 20:44:08 145.935
Oscar 11 28 Nov 20:36:51 20:41:08 64° 66° (ENE) 20:45:27 145.826/435.025
AISAT 28 Nov 20:42:29 20:46:34 36° 56° (NE) 20:50:38 437.250
AIST 1 28 Nov 20:43:22 20:47:48 69° 289° (WNW) 20:52:15
CUBEBUG 1 28 Nov 20:44:37 20:48:00 22° 47° (NE) 20:51:23 437.445
COMPASS 1 28 Nov 20:46:40 20:50:51 68° 255° (WSW) 20:55:05 437.405
MOZHAYETS 4 28 Nov 20:48:31 20:51:16 16° 322° (NW) 20:54:02
DANDE 28 Nov 20:50:14 20:51:20 11° 41° (NE) 20:52:31 436.750
CANX-2 28 Nov 20:51:19 20:55:27 49° 260° (W) 20:59:37 2200.000
PRISM 28 Nov 20:52:36 20:56:15 28° 308° (NW) 20:59:51 437.425
AIST 2 28 Nov 20:54:49 20:58:08 22° 125° (SE) 21:01:29 435.215
HUMSAT D 28 Nov 20:58:05 21:01:55 38° 59° (ENE) 21:05:45 437.325/437.525
CUBESAT XI-V 28 Nov 21:00:41 21:05:09 43° 301° (WNW) 21:09:34 437.345
PCSat 28 Nov 21:01:44 21:07:05 63° 136° (SE) 21:12:28 145.827
GONETS M04 28 Nov 21:05:11 21:13:05 38° 280° (W) 21:20:55
DX 1 28 Nov 21:06:35 21:11:00 83° 251° (WSW) 21:15:25 434.975-435.025
STRAND 1 28 Nov 21:07:35 21:12:32 49° 302° (WNW) 21:17:26 437.568
GOMX 1 28 Nov 21:09:41 21:14:03 49° 259° (W) 21:18:13 467.674
UWE-3 28 Nov 21:10:09 21:14:18 69° 68° (ENE) 21:18:28 435.000/436.395/437.385
CUBEBUG 2 28 Nov 21:16:31 21:20:43 84° 70° (ENE) 21:24:55 437.445
AUBIESAT-1 28 Nov 21:18:54 21:21:56 18° 23° (NNE) 21:25:04 437.475
BEESAT 28 Nov 21:20:00 21:21:16 11° 22° (NNE) 21:22:33 436.000
BEESAT 3 28 Nov 21:25:25 21:29:25 46° 139° (SE) 21:33:28 437.485
M-CUBED/EXP-1 PRIME 28 Nov 21:26:06 21:29:18 19° 26° (NNE) 21:32:37 437.505
CUTE 1.7 + AOD 2 28 Nov 21:26:11 21:29:56 30° 267° (W) 21:33:44 437.475
TISAT 1 28 Nov 21:36:21 21:39:28 20° 46° (NE) 21:42:35 437.305
ZACube-1 28 Nov 21:38:09 21:42:20 84° 252° (WSW) 21:46:32 437.345
BEESAT 2 28 Nov 21:43:24 21:47:29 54° 142° (SE) 21:51:37 435.950
MaSat-1 28 Nov 21:45:25 21:47:37 33° 30° (NNE) 21:49:46 437.345
VELOX 1 28 Nov 21:50:13 21:54:43 88° 251° (WSW) 21:59:13 145.980
DOVE 4 28 Nov 21:51:39 21:55:32 31° 266° (W) 21:59:19 437.250
CUSAT 1 28 Nov 21:52:08 21:55:33 26° 56° (NE) 21:59:53 437.405
RS-15 28 Nov 21:52:50 22:03:53 83° 14° (NNE) 22:15:19 29.354- 29.394
DELFI C3 28 Nov 21:54:15 21:58:08 41° 262° (W) 22:02:04 145.870
HO-68 28 Nov 21:54:18 22:00:31 30° 271° (W) 22:06:45 435.675
SPROUT 28 Nov 21:55:41 21:59:08 24° 50° (NE) 22:02:34 437.525
BRITE-PL 28 Nov 21:55:45 21:59:18 21° 271° (W) 22:02:42 437.365/2234.400
SEEDS 28 Nov 21:55:57 21:59:11 21° 272° (W) 22:02:27 437.485
ESTCUBE 1 28 Nov 22:00:08 22:04:38 60° 64° (ENE) 22:09:09 437.505/2401.250
50 SAT 28 Nov 22:00:37 22:04:40 89° 252° (WSW) 22:08:44 437.505
CINEMA 3 28 Nov 22:03:59 22:07:51 34° 265° (W) 22:11:41 145.822/145.860
UKube-1 28 Nov 22:04:38 22:08:37 34° 264° (W) 22:12:37 .
AAUSAT CUBESAT 2 28 Nov 22:06:18 22:09:31 21° 272° (W) 22:12:46 437.432
FUNcube-1 28 Nov 22:12:37 22:16:39 47° 260° (W) 22:20:42 145.935
Oscar 11 28 Nov 22:13:55 22:17:40 29° 267° (W) 22:21:28 145.826/435.025
ITUPSAT 1 28 Nov 22:15:06 22:18:07 17° 36° (NE) 22:21:09 437.325
POPSAT HIP 1 28 Nov 22:16:04 22:18:12 14° 82° (E) 22:20:20 437.405
AISAT 28 Nov 22:18:42 22:23:07 57° 257° (WSW) 22:27:32 437.250
CUBEBUG 1 28 Nov 22:19:25 22:23:52 76° 68° (ENE) 22:28:18 437.445
AIST 1 28 Nov 22:23:07 22:26:19 19° 312° (NW) 22:29:31
SWISSCUBE 28 Nov 22:24:18 22:27:38 19° 39° (NE) 22:30:57 437.505
COMPASS 1 28 Nov 22:24:58 22:27:25 15° 277° (W) 22:29:54 437.405
TIGRISAT 28 Nov 22:25:03 22:28:24 21° 88° (E) 22:31:47 435.000
PRISM 28 Nov 22:29:44 22:30:38 11° 330° (NNW) 22:31:33 437.425
CANX-2 28 Nov 22:31:14 22:32:28 11° 282° (WNW) 22:33:43 2200.000
AIST 2 28 Nov 22:31:56 22:36:12 66° 147° (SSE) 22:40:31 435.215
DANDE 28 Nov 22:32:08 22:35:47 38° 62° (ENE) 22:40:34 436.750
HUMSAT D 28 Nov 22:33:47 22:37:45 45° 260° (W) 22:41:45 437.325/437.525
CUBESAT XI-V 28 Nov 22:38:54 22:41:39 16° 323° (NW) 22:44:23 437.345
UNISAT 6 28 Nov 22:40:20 22:44:06 26° 92° (E) 22:47:54 437.425
DX 1 28 Nov 22:44:48 22:47:56 19° 273° (W) 22:51:05 434.975-435.025
PCSat 28 Nov 22:45:13 22:50:38 65° 340° (NNW) 22:56:04 145.827
STRAND 1 28 Nov 22:47:18 22:50:48 19° 324° (NW) 22:54:18 437.568
UWE-3 28 Nov 22:47:51 22:51:19 25° 269° (W) 22:54:47 435.000/436.395/437.385
POLYITAN 1 28 Nov 22:50:52 22:54:18 23° 90° (E) 22:57:44 437.675
QB50P2 28 Nov 22:51:33 22:55:01 24° 90° (E) 22:58:28 145.880/145.840
AUBIESAT-1 28 Nov 22:51:44 22:55:54 37° 45° (NE) 23:00:19 437.475
GOMX 1 28 Nov 22:51:56 22:53:14 11° 281° (W) 22:54:32 467.674
BEESAT 28 Nov 22:53:53 22:57:43 24° 45° (NE) 23:01:33 436.000
CUBEBUG 2 28 Nov 22:54:51 22:58:01 21° 272° (W) 23:01:11 437.445
DUCHIFAT 1 28 Nov 22:55:25 22:58:56 25° 91° (E) 23:02:26 145.980
M-CUBED/EXP-1 PRIME 28 Nov 22:59:09 23:03:24 41° 48° (NE) 23:07:56 437.505
BEESAT 3 28 Nov 23:03:22 23:07:34 76° 342° (NNW) 23:11:48 437.485
GONETS M04 28 Nov 23:03:27 23:07:16 14° 307° (NW) 23:11:05
ANTELSAT 28 Nov 23:09:20 23:13:32 41° 98° (E) 23:17:49 437.575/2403.000
TISAT 1 28 Nov 23:10:31 23:14:46 73° 67° (ENE) 23:19:01 437.305
NANOSAT C BR1 28 Nov 23:15:15 23:19:08 34° 96° (E) 23:23:00 145.865
ZACube-1 28 Nov 23:16:33 23:19:25 18° 274° (W) 23:22:18 437.345
BUGSAT 1 28 Nov 23:19:21 23:23:03 31° 95° (E) 23:26:42 437.445
MaSat-1 28 Nov 23:19:55 23:22:02 31° 232° (SW) 23:24:09 437.345
STARS 28 Nov 23:20:09 23:21:58 12° 32° (NNE) 23:23:47 437.465
BEESAT 2 28 Nov 23:21:34 23:25:47 71° 345° (NNW) 23:30:02 435.950
QB50P1 28 Nov 23:25:35 23:29:36 40° 98° (E) 23:33:36 145.935-145.965
VELOX 1 28 Nov 23:28:35 23:31:57 21° 272° (W) 23:35:20 145.980
SPROUT 28 Nov 23:30:28 23:34:48 89° 72° (ENE) 23:39:09 437.525
CUSAT 1 28 Nov 23:34:54 23:39:01 78° 254° (WSW) 23:44:36 437.405
ESTCUBE 1 28 Nov 23:37:41 23:41:49 33° 266° (W) 23:45:58 437.505/2401.250
50 SAT 28 Nov 23:37:45 23:40:36 18° 273° (W) 23:43:27 437.505
ITUPSAT 1 28 Nov 23:50:29 23:55:05 45° 58° (ENE) 23:59:42 437.325
POPSAT HIP 1 28 Nov 23:50:49 23:55:02 61° 103° (ESE) 23:59:13 437.405
FUNcube-1 28 Nov 23:53:29 23:54:07 10° 282° (WNW) 23:54:45 145.935
CUBEBUG 1 28 Nov 23:57:04 00:00:44 25° 269° (W) 00:04:25 437.445
AISAT 28 Nov 23:58:32 00:00:45 13° 279° (W) 00:02:58 437.250
SWISSCUBE 29 Nov 00:00:00 00:04:41 54° 61° (ENE) 00:09:24 437.505
TIGRISAT 29 Nov 00:01:22 00:05:47 90° 129° (SE) 00:10:17 435.000
KKS-1 29 Nov 00:05:18 00:08:47 23° 47° (NE) 00:12:17 437.445
RS-15 29 Nov 00:05:22 00:16:15 67° 224° (SW) 00:27:33 29.354- 29.394
AIST 2 29 Nov 00:10:39 00:14:57 67° 349° (N) 00:19:18 435.215
DANDE 29 Nov 00:15:31 00:19:23 47° 259° (WSW) 00:24:33 436.750
UNISAT 6 29 Nov 00:16:56 00:21:20 72° 293° (WNW) 00:25:50 437.425
AUBIESAT-1 29 Nov 00:26:15 00:30:42 68° 247° (WSW) 00:35:30 437.475
POLYITAN 1 29 Nov 00:26:30 00:30:46 76° 291° (WNW) 00:35:00 437.675
QB50P2 29 Nov 00:27:11 00:31:26 75° 292° (WNW) 00:35:40 145.880/145.840
STRAND 1 29 Nov 00:27:21 00:28:19 11° 348° (NNW) 00:29:16 437.568
PCSat 29 Nov 00:29:22 00:34:43 53° 5° (N) 00:40:04 145.827
BEESAT 29 Nov 00:30:13 00:35:01 77° 67° (ENE) 00:39:52 436.000
DUCHIFAT 1 29 Nov 00:31:02 00:35:16 71° 292° (WNW) 00:39:28 145.980
M-CUBED/EXP-1 PRIME 29 Nov 00:33:59 00:38:22 57° 250° (WSW) 00:43:07 437.505
YUBILEINY 29 Nov 00:39:01 00:45:07 22° 66° (ENE) 00:51:12 435.215
BEESAT 3 29 Nov 00:41:56 00:46:08 63° 5° (N) 00:50:20 437.485
ANTELSAT 29 Nov 00:46:15 00:50:29 47° 299° (WNW) 00:54:48 437.575/2403.000
TISAT 1 29 Nov 00:47:32 00:51:04 25° 269° (W) 00:54:36 437.305
NANOSAT C BR1 29 Nov 00:51:07 00:55:15 52° 297° (WNW) 00:59:21 145.865
STARS 29 Nov 00:53:27 00:57:24 33° 55° (NE) 01:01:21 437.465
BUGSAT 1 29 Nov 00:54:47 00:58:50 54° 296° (WNW) 01:02:48 437.445
BEESAT 2 29 Nov 01:00:13 01:04:26 64° 8° (N) 01:08:39 435.950
QB50P1 29 Nov 01:01:34 01:05:37 44° 299° (WNW) 01:09:38 145.935-145.965
SPROUT 29 Nov 01:08:16 01:11:31 21° 272° (W) 01:14:47 437.525
Oscar 19 29 Nov 01:17:36 01:21:48 24° 88° (E) 01:26:00 437.125/150
CUSAT 1 29 Nov 01:18:49 01:21:51 18° 271° (W) 01:25:27 437.405
ISS 29 Nov 01:26:36 01:28:06 13° 172° (S) 01:29:36 145.825
POPSAT HIP 1 29 Nov 01:27:02 01:30:48 32° 305° (NW) 01:34:32 437.405
ITUPSAT 1 29 Nov 01:28:22 01:33:02 48° 260° (W) 01:37:45 437.325
Gurwin Techsat 1B 29 Nov 01:31:34 01:33:26 12° 75° (ENE) 01:35:18 435.225
MOZHAYETS 4 29 Nov 01:35:14 01:37:29 14° 33° (NNE) 01:39:45
SWISSCUBE 29 Nov 01:38:14 01:42:46 39° 263° (W) 01:47:20 437.505
TIGRISAT 29 Nov 01:38:36 01:42:09 25° 310° (NW) 01:45:45 435.000
KKS-1 29 Nov 01:40:30 01:44:57 82° 69° (ENE) 01:49:26 437.445
AIST 2 29 Nov 01:49:37 01:53:57 69° 13° (NNE) 01:58:17 435.215
UNISAT 6 29 Nov 01:54:20 01:57:36 21° 314° (NW) 02:00:54 437.425
DANDE 29 Nov 02:01:24 02:02:19 11° 277° (W) 02:03:16 436.750
POLYITAN 1 29 Nov 02:03:03 02:06:12 21° 313° (NW) 02:09:21 437.675
AUBIESAT-1 29 Nov 02:03:37 02:06:36 17° 270° (W) 02:09:44 437.475
QB50P2 29 Nov 02:03:41 02:06:51 21° 313° (NW) 02:09:59 145.880/145.840
STRAND 1 29 Nov 02:04:29 02:05:31 11° 13° (NNE) 02:06:34 437.568
DUCHIFAT 1 29 Nov 02:07:31 02:10:35 20° 314° (NW) 02:13:39 145.980
BEESAT 29 Nov 02:09:19 02:13:24 27° 269° (W) 02:17:31 436.000
M-CUBED/EXP-1 PRIME 29 Nov 02:11:58 02:14:29 15° 272° (W) 02:17:05 437.505
PCSat 29 Nov 02:13:11 02:18:40 79° 29° (NNE) 02:24:08 145.827
RS-15 29 Nov 02:17:43 02:26:48 31° 252° (WSW) 02:36:12 29.354- 29.394
ITAMSAT 1 29 Nov 02:18:03 02:22:36 30° 92° (E) 02:27:08 435.822/435.867
BEESAT 3 29 Nov 02:20:21 02:24:35 82° 208° (SSW) 02:28:47 437.485
ANTELSAT 29 Nov 02:23:53 02:26:28 16° 321° (NW) 02:29:05 437.575/2403.000
NANOSAT C BR1 29 Nov 02:27:48 02:30:24 16° 319° (NW) 02:32:59 145.865
STARS 29 Nov 02:29:23 02:33:45 61° 256° (WSW) 02:38:08 437.465
BUGSAT 1 29 Nov 02:31:05 02:33:37 16° 318° (NW) 02:36:08 437.445
YUBILEINY 29 Nov 02:31:38 02:40:10 59° 92° (E) 02:48:41 435.215
QB50P1 29 Nov 02:38:22 02:40:40 14° 321° (NW) 02:42:58 145.935-145.965
BEESAT 2 29 Nov 02:38:39 02:42:53 73° 211° (SSW) 02:47:06 435.950
HORYU 2 29 Nov 02:40:37 02:43:17 15° 83° (E) 02:45:57 437.375
Oscar 19 29 Nov 02:56:39 03:01:51 90° 110° (ESE) 03:07:04 437.125/150
ISS 29 Nov 03:02:27 03:03:45 12° 192° (SSW) 03:05:03 145.825
AO-7 29 Nov 03:03:11 03:08:38 18° 76° (ENE) 03:14:04 29.400- 29.500
POPSAT HIP 1 29 Nov 03:04:18 03:05:38 11° 327° (NNW) 03:06:59 437.405
MOZHAYETS 4 29 Nov 03:09:25 03:13:38 36° 56° (NE) 03:17:53
PRISM 29 Nov 03:09:33 03:12:08 16° 40° (NE) 03:14:43 437.425
Gurwin Techsat 1B 29 Nov 03:09:47 03:14:53 44° 98° (E) 03:19:57 435.225
ITUPSAT 1 29 Nov 03:10:15 03:12:10 12° 282° (WNW) 03:14:05 437.325
KKS-1 29 Nov 03:18:35 03:22:10 23° 270° (W) 03:25:45 437.445
JAS-2 29 Nov 03:21:55 03:23:38 11° 61° (ENE) 03:25:19 435.910
CUBESAT XI-V 29 Nov 03:26:02 03:28:29 14° 34° (NE) 03:30:56 437.345
AIST 2 29 Nov 03:28:23 03:32:40 61° 216° (SW) 03:36:55 435.215
SO-50 29 Nov 03:39:02 03:42:27 21° 122° (ESE) 03:45:58 436.795
STRAND 1 29 Nov 03:39:29 03:43:03 19° 36° (NE) 03:46:36 437.568
PCSat 29 Nov 03:56:47 04:01:54 43° 233° (SW) 04:07:00 145.827
ITAMSAT 1 29 Nov 03:57:25 04:02:38 76° 294° (WNW) 04:07:49 435.822/435.867
BEESAT 3 29 Nov 03:58:47 04:02:27 29° 230° (SW) 04:06:04 437.485
STARS 29 Nov 04:08:49 04:11:11 14° 278° (W) 04:13:32 437.465
HORYU 2 29 Nov 04:16:23 04:20:52 64° 105° (ESE) 04:25:21 437.375
BEESAT 2 29 Nov 04:17:15 04:20:42 25° 233° (SW) 04:24:08 435.950
YUBILEINY 29 Nov 04:28:32 04:37:11 58° 298° (WNW) 04:45:51 435.215
Oscar 19 29 Nov 04:36:22 04:40:47 29° 312° (NW) 04:45:12 437.125/150
PRISM 29 Nov 04:42:48 04:46:54 50° 62° (ENE) 04:51:03 437.425
MOZHAYETS 4 29 Nov 04:46:10 04:50:45 59° 258° (WSW) 04:55:23
Gurwin Techsat 1B 29 Nov 04:49:52 04:55:04 55° 300° (WNW) 05:00:14 435.225
AO-7 29 Nov 04:55:29 05:03:39 52° 102° (ESE) 05:11:47 29.400- 29.500
CUBESAT XI-V 29 Nov 05:00:31 05:04:53 38° 57° (ENE) 05:09:14 437.345
AIST 1 29 Nov 05:01:51 05:05:39 27° 56° (NE) 05:09:24
JAS-2 29 Nov 05:04:41 05:11:19 35° 87° (E) 05:17:16 435.910
AIST 2 29 Nov 05:07:31 05:10:40 20° 237° (WSW) 05:13:47 435.215
STRAND 1 29 Nov 05:16:22 05:21:20 51° 59° (ENE) 05:26:19 437.568
SO-50 29 Nov 05:17:43 05:22:17 60° 144° (SE) 05:27:01 436.795
Cubesat XI-IV 29 Nov 05:24:45 05:27:41 15° 79° (E) 05:30:37 437.490
ITAMSAT 1 29 Nov 05:37:20 05:41:33 26° 316° (NW) 05:45:45 435.822/435.867
PCSat 29 Nov 05:41:39 05:44:05 13° 255° (WSW) 05:46:30 145.827
HORYU 2 29 Nov 05:53:22 05:57:22 33° 306° (NW) 06:01:23 437.375
CUTE-I 29 Nov 06:04:26 06:08:47 25° 88° (E) 06:13:06 437.470
Oscar 19 29 Nov 06:16:23 06:18:47 13° 336° (NNW) 06:21:11 437.125/150
O/OREOS (USA 219) 29 Nov 06:18:16 06:22:27 40° 117° (ESE) 06:26:39 437.305
PRISM 29 Nov 06:18:43 06:22:39 36° 263° (W) 06:26:37 437.425
MOZHAYETS 4 29 Nov 06:26:25 06:28:59 15° 280° (W) 06:31:34
YUBILEINY 29 Nov 06:28:53 06:36:11 28° 327° (NNW) 06:43:30 435.215
GONETS M04 29 Nov 06:29:16 06:35:43 24° 67° (ENE) 06:42:10
Gurwin Techsat 1B 29 Nov 06:30:19 06:34:10 21° 323° (NW) 06:38:01 435.225
CUBESAT XI-V 29 Nov 06:37:34 06:42:14 57° 258° (WSW) 06:46:55 437.345
AIST 1 29 Nov 06:39:22 06:43:47 73° 259° (WSW) 06:48:09
AO-7 29 Nov 06:48:35 06:56:52 69° 306° (NW) 07:05:09 29.400- 29.500
JAS-2 29 Nov 06:49:44 06:57:13 84° 293° (WNW) 07:03:49 435.910
STRAND 1 29 Nov 06:55:43 07:00:40 46° 261° (W) 07:05:38 437.568
SO-50 29 Nov 06:58:11 07:02:53 74° 348° (NNW) 07:07:45 436.795
Cubesat XI-IV 29 Nov 07:03:48 07:09:03 54° 102° (ESE) 07:14:16 437.490
ANTELSAT 29 Nov 07:10:11 07:11:35 11° 32° (NNE) 07:13:00 437.575/2403.000
ITAMSAT 1 29 Nov 07:17:26 07:19:35 13° 340° (NNW) 07:21:44 435.822/435.867
HO-68 29 Nov 07:21:55 07:24:30 12° 69° (ENE) 07:27:04 435.675
QB50P1 29 Nov 07:22:09 07:23:06 11° 31° (NNE) 07:24:03 145.935-145.965
HORYU 2 29 Nov 07:31:04 07:32:58 13° 328° (NNW) 07:34:51 437.375
CUTE-I 29 Nov 07:44:14 07:49:37 88° 110° (ESE) 07:54:57 437.470
POPSAT HIP 1 29 Nov 07:46:00 07:48:05 14° 37° (NE) 07:50:10 437.405
O/OREOS (USA 219) 29 Nov 07:57:21 08:01:47 59° 319° (NW) 08:06:14 437.305
TIGRISAT 29 Nov 07:59:44 08:02:41 18° 44° (NE) 08:05:40 435.000
BRITE-PL 29 Nov 08:10:38 08:12:04 12° 79° (E) 08:13:29 437.365/2234.400
Gurwin Techsat 1B 29 Nov 08:10:50 08:12:27 11° 346° (NNW) 08:14:05 435.225
UNISAT 6 29 Nov 08:14:58 08:18:17 22° 47° (NE) 08:21:37 437.425
AIST 1 29 Nov 08:18:03 08:20:45 16° 280° (W) 08:23:26
CUBESAT XI-V 29 Nov 08:18:11 08:20:44 14° 280° (W) 08:23:17 437.345
POLYITAN 1 29 Nov 08:20:29 08:23:33 20° 46° (NE) 08:26:36 437.675
QB50P2 29 Nov 08:20:59 08:24:03 20° 46° (NE) 08:27:08 145.880/145.840
COMPASS 1 29 Nov 08:21:17 08:22:57 12° 80° (E) 08:24:37 437.405
GONETS M04 29 Nov 08:22:15 08:30:54 63° 93° (E) 08:39:36
DUCHIFAT 1 29 Nov 08:24:29 08:27:36 20° 47° (NE) 08:30:43 145.980
CANX-2 29 Nov 08:26:27 08:29:18 17° 85° (E) 08:32:09 2200.000
YUBILEINY 29 Nov 08:30:30 08:36:43 21° 360° (N) 08:42:56 435.215
JAS-2 29 Nov 08:34:56 08:41:33 36° 318° (NW) 08:47:35 435.910
SO-50 29 Nov 08:39:01 08:43:48 73° 11° (NNE) 08:48:41 436.795
STRAND 1 29 Nov 08:39:13 08:41:13 12° 283° (WNW) 08:43:14 437.568
AO-7 29 Nov 08:41:20 08:48:41 36° 332° (NNW) 08:56:01 29.400- 29.500
ANTELSAT 29 Nov 08:43:30 08:47:17 31° 54° (NE) 08:51:07 437.575/2403.000
NANOSAT C BR1 29 Nov 08:44:00 08:47:30 26° 51° (NE) 08:51:00 145.865
Cubesat XI-IV 29 Nov 08:44:05 08:49:11 46° 304° (NW) 08:54:14 437.490
BUGSAT 1 29 Nov 08:45:51 08:49:13 24° 50° (NE) 08:52:33 437.445
QB50P1 29 Nov 08:54:12 08:57:52 29° 54° (NE) 09:01:33 145.935-145.965
ITAMSAT 1 29 Nov 08:56:39 08:57:08 10° 4° (N) 08:57:37 435.822/435.867
CUTE 1.7 + AOD 2 29 Nov 09:00:11 09:03:52 27° 92° (E) 09:07:33 437.475
GOMX 1 29 Nov 09:00:23 09:03:34 21° 88° (E) 09:06:47 467.674
HO-68 29 Nov 09:07:51 09:14:32 39° 94° (E) 09:21:10 435.675
ZACube-1 29 Nov 09:18:19 09:18:57 10° 78° (ENE) 09:19:36 437.345
POPSAT HIP 1 29 Nov 09:19:07 09:23:06 40° 59° (ENE) 09:27:05 437.405
DELFI C3 29 Nov 09:24:34 09:27:22 17° 86° (E) 09:30:10 145.870
CUTE-I 29 Nov 09:24:40 09:29:17 31° 313° (NW) 09:33:52 437.470
SEEDS 29 Nov 09:28:20 09:32:21 38° 97° (E) 09:36:22 437.485
Oscar 19 29 Nov 09:31:15 09:33:38 13° 24° (NNE) 09:36:00 437.125/150
TIGRISAT 29 Nov 09:34:35 09:38:48 63° 66° (ENE) 09:43:05 435.000
AAUSAT CUBESAT 2 29 Nov 09:37:37 09:41:35 36° 96° (E) 09:45:31 437.432
O/OREOS (USA 219) 29 Nov 09:38:07 09:42:00 28° 343° (NNW) 09:45:54 437.305
DOVE 4 29 Nov 09:38:52 09:42:38 31° 95° (E) 09:46:26 437.250
UKube-1 29 Nov 09:41:25 09:44:51 22° 90° (E) 09:48:15 .
CINEMA 3 29 Nov 09:47:19 09:50:55 27° 92° (E) 09:54:35 145.822/145.860
BRITE-PL 29 Nov 09:47:32 09:51:40 54° 102° (ESE) 09:55:45 437.365/2234.400
Gurwin Techsat 1B 29 Nov 09:49:00 09:50:24 11° 11° (N) 09:51:48 435.225
Oscar 11 29 Nov 09:49:39 09:53:29 29° 93° (E) 09:57:19 145.826/435.025
UNISAT 6 29 Nov 09:50:19 09:54:36 82° 69° (ENE) 09:58:57 437.425
FUNcube-1 29 Nov 09:50:37 09:53:31 18° 86° (E) 09:56:25 145.935
POLYITAN 1 29 Nov 09:54:42 09:58:56 70° 67° (ENE) 10:03:11 437.675
QB50P2 29 Nov 09:55:11 09:59:25 71° 67° (ENE) 10:03:40 145.880/145.840
COMPASS 1 29 Nov 09:55:31 09:59:42 53° 101° (E) 10:03:53 437.405
DUCHIFAT 1 29 Nov 09:58:43 10:02:57 74° 68° (ENE) 10:07:12 145.980
AISAT 29 Nov 09:59:47 10:02:26 15° 83° (E) 10:05:05 437.250
CANX-2 29 Nov 10:01:40 10:06:00 76° 106° (ESE) 10:10:19 2200.000
HUMSAT D 29 Nov 10:07:58 10:10:41 17° 85° (E) 10:13:25 437.325/437.525
NANOSAT C BR1 29 Nov 10:18:48 10:23:03 81° 252° (WSW) 10:27:20 145.865
ANTELSAT 29 Nov 10:19:40 10:23:55 64° 256° (WSW) 10:28:15 437.575/2403.000
SO-50 29 Nov 10:19:41 10:24:26 63° 215° (SW) 10:29:16 436.795
BUGSAT 1 29 Nov 10:20:05 10:24:20 88° 251° (WSW) 10:28:33 437.445
DX 1 29 Nov 10:20:31 10:24:40 41° 99° (E) 10:28:47 434.975-435.025
